Regional Weather Roundup
Issued by NWS

Home | Current Version | Previous Version | Graphics & Text | Print | Product List | Glossary On
Versions: 1 2 3 4 5 6 7 8 9 10 11 12 13 14 15 16 17 18 19 20 21 22 23 24 25 26 27 28 29 30 31 32 33 34 35 36 37 38 39 40 41 42 43 44 45 46 47 48 49 50
000
ASUS43 KFSD 272102
RWRSD

WEATHER ROUNDUP FOR SOUTH DAKOTA
NATIONAL WEATHER SERVICE SIOUX FALLS SD
300 PM CST THU NOV 27 2014

NOTE: "FAIR" INDICATES FEW OR NO CLOUDS BELOW 12,000 FEET WITH NO
SIGNIFICANT WEATHER AND/OR OBSTRUCTIONS TO VISIBILITY.


SDZ001>005-009-010-012>017-272200-
NORTHWEST AND NORTH CENTRAL SOUTH DAKOTA

CITY           SKY/WX    TMP DP  RH WIND       PRES   REMARKS
BUFFALO          N/A     30  22  72 S13       29.81F WCI  20
FAITH            N/A     23  16  74 S13       29.96F WCI  11
MOBRIDGE       CLOUDY    18  10  71 S21G29    30.05F WCI   1
$$

SDZ012>016-024>037-041>051-057-063-072>074-272200-
SOUTHWEST AND SOUTH CENTRAL SOUTH DAKOTA

CITY           SKY/WX    TMP DP  RH WIND       PRES   REMARKS
RAPID CTY ARPT PTSUNNY   34  27  75 S8        29.91F WCI  27
PIERRE         CLOUDY    24  14  65 SE20      30.06F WCI  10
CUSTER         PTSUNNY   46  24  42 W9        29.95S
ELLSWORTH AFB  MOSUNNY   35  28  76 S6        29.90F WCI  30
PHILIP         PTSUNNY   33  22  63 E9        29.98F WCI  25
PINE RIDGE     MOSUNNY   53  32  44 W9        29.94F
WINNER         CLOUDY    33  17  51 SE16G22   30.07F WCI  23
$$

SDZ004>011-016>023-039-040-272200-
NORTHEAST SOUTH DAKOTA

CITY           SKY/WX    TMP DP  RH WIND       PRES   REMARKS
ABERDEEN       FLURRIES  12   2  64 SE14      30.23F WCI  -3
WATERTOWN      CLOUDY     9  -1  64 S14       30.24F WCI  -7
SISSETON         N/A      5  -4  66 SE13      30.31F WCI -12
$$

SDZ017-020-022-023-036>040-048>070-272200-
SOUTHEAST SOUTH DAKOTA

CITY           SKY/WX    TMP DP  RH WIND       PRES   REMARKS
SIOUX FALLS    CLOUDY    11   0  61 SE13      30.29F WCI  -4
HURON          CLOUDY    14   3  61 SE14G22   30.24F WCI  -1
MITCHELL       PTSUNNY   15   6  67 SE16      30.24F WCI  -1
YANKTON        MOSUNNY   18   7  62 SE12      30.27F WCI   5
$$

ABBREVIATIONS USED IN REMARKS
   TC - TEMPERATURE IN CELSIUS
  WCI - WIND CHILL INDEX
   HX - HEAT INDEX
  VSB - VISIBILITY




USA.gov is the U.S. government's official web portal to all federal, state and local government web resources and services.